Latest Coastal Weather Observations for Northern Endeavour (near 10.5S 126E)

IDD60701

Issued at 12:25 am CST Thursday 17 April 2014 (issued every 10 minutes, with the page automatically refreshed every 10 minutes)

About coastal observations | Map of coastal stations | Coastal observations for NT | Marine services | Other Formats
Station Details ID: 200212 Name: NORTHERN ENDEAVOUR Lat: -10.61 Lon: 125.98 Height: 16.0 m
Data from the previous 72 hours. | See also: Recent months for locations in Northern Territory
Date/Time
CST
Temp

°C
Wind Pressure Rain
since 9am
mm
Weather Cloud Vis
km
Sea
Height
m
Swell
Dir
 
Speed
knots
Gust
knots
hPa Trend Height
m
Period
s
Dir
17/12:20am 29.1 ESE 11 12 1010.8 - - - Cloudy 10 - - - -
17/12:10am 29.3 ESE 10 11 1010.9 - - - Cloudy 10 - - - -
17/12:00am 29.3 ESE 11 12 1011.0 - - - Cloudy 10 - - - -
 
Date/Time
CST
Temp

°C
Wind Pressure Rain
since 9am
mm
Weather Cloud Vis
km
Sea
Height
m
Swell
Dir
 
Speed
knots
Gust
knots
hPa Trend Height
m
Period
s
Dir
16/11:50pm 29.5 E 12 15 1010.9 - - - Partly cloudy 10 - - - -
16/11:40pm 29.8 E 14 15 1011.0 - - - Partly cloudy 10 - - - -
16/11:30pm 29.9 E 13 15 1011.0 - - - Partly cloudy 10 - - - -
16/11:20pm 29.5 E 12 15 1011.0 - - - Partly cloudy 10 - - - -
16/11:10pm 30.0 E 14 14 1010.9 - - - Partly cloudy 10 - - - -
16/11:00pm 29.7 E 13 16 1010.9 - - - Partly cloudy 10 - - - -
16/10:50pm 29.2 E 11 13 1011.0 - - - Cloudy 10 - - - -
16/10:40pm 29.2 E 11 16 1011.1 - - - Cloudy 10 - - - -
16/10:30pm 28.9 E 10 12 1011.2 - - - Cloudy 10 - - - -
16/10:20pm 28.9 E 11 13 1011.2 - - - Partly cloudy 10 - - - -
16/10:10pm 29.0 ESE 11 12 1011.2 - - - Partly cloudy 10 - - - -
16/10:00pm 28.5 ESE 9 12 1011.1 - - - Cloudy 10 - - - -
16/09:50pm 28.4 ESE 9 11 1011.1 - - - Cloudy 10 - - - -
16/09:30pm 28.4 ESE 9 12 1010.8 - - - Partly cloudy 10 - - - -
16/09:20pm 28.3 E 8 11 1010.6 - - - Cloudy 10 - - - -
16/09:10pm 28.0 E 6 11 1010.4 - - - Cloudy 10 - - - -
16/09:00pm 28.0 E 7 10 1010.3 - - - Partly cloudy 10 - - - -
16/08:50pm 27.8 E 6 6 1010.1 - - - Partly cloudy 10 - - - -
16/08:40pm 27.6 E 5 8 1010.1 - - - Partly cloudy 10 - - - -
16/08:30pm 27.5 E 6 10 1010.1 - - - Partly cloudy 10 - - - -
16/08:20pm 27.1 E 7 10 1010.0 - - - Partly cloudy 10 - - - -
16/08:10pm 27.3 E 6 7 1010.0 - - - Partly cloudy 10 - - - -
16/08:00pm 27.0 E 7 10 1010.0 - - - Partly cloudy 10 - - - -
16/07:50pm 27.0 E 4 8 1009.9 - - - Partly cloudy 10 - - - -
16/07:40pm 26.8 E 6 10 1009.8 - - - Partly cloudy 10 - - - -
16/07:30pm 26.7 E 8 7 1009.6 - - - Partly cloudy 10 - - - -
16/07:20pm 26.4 E 12 12 1009.5 - - - Partly cloudy 10 - - - -
16/07:10pm 26.7 E 13 13 1009.3 - - - Partly cloudy 10 - - - -
16/07:00pm 26.6 E 17 18 1009.3 - - - Partly cloudy 10 - - - -
16/06:50pm 26.5 E 20 21 1009.1 - - - Partly cloudy 10 - - - -
16/06:40pm 26.5 E 24 24 1009.0 - - - Partly cloudy 10 - - - -
16/06:30pm 26.4 E 24 27 1009.0 - - - Partly cloudy 10 - - - -
16/06:20pm 26.1 E 28 30 1008.7 - - - Partly cloudy 10 - - - -
16/06:10pm 27.3 ESE 21 35 1008.5 - - - Partly cloudy 10 - - - -
16/06:08pm 27.8 ESE 16 30 1008.6 - - - Partly cloudy 10 - - - -
16/06:00pm 28.9 E 9 11 1008.4 - - - Partly cloudy 10 - - - -
16/05:50pm 28.8 E 9 11 1008.2 - - - Partly cloudy 10 - - - -
16/05:40pm 29.2 ESE 10 11 1008.1 - - - Partly cloudy 10 - - - -
16/05:30pm 28.9 E 7 9 1008.1 - - - Partly cloudy 10 - - - -
16/05:20pm 29.2 ESE 7 8 1008.0 - - - Partly cloudy 10 - - - -
16/05:10pm 29.6 E 6 8 1007.9 - - - Partly cloudy 10 - - - -
16/05:00pm 29.6 E 5 6 1007.9 - - - Partly cloudy 10 - - - -
16/04:50pm 29.0 E 5 6 1007.9 - - - Partly cloudy 10 - - - -
16/04:40pm 28.8 E 5 7 1007.9 - - - Partly cloudy 10 - - - -
16/04:30pm 29.7 ESE 5 5 1007.9 - - - - 10 - - - -
16/04:20pm 30.0 ESE 5 8 1007.9 - - - - 10 - - - -
16/04:10pm 29.7 SE 6 8 1007.9 - - - Partly cloudy 10 - - - -
16/04:00pm 29.5 SSE 8 10 1007.9 - - - Partly cloudy 10 - - - -
16/03:50pm 29.6 S 8 9 1007.9 - - - Partly cloudy 10 - - - -
16/03:40pm 30.0 SSE 7 10 1007.8 - - - Cloudy 10 - - - -
16/03:30pm 29.7 SSE 6 10 1007.9 - - - Partly cloudy 10 - - - -
16/03:20pm 29.3 S 8 10 1008.0 - - - Partly cloudy 10 - - - -
16/03:10pm 29.1 S 8 12 1008.1 - - - Partly cloudy 10 - - - -
16/03:00pm 29.0 S 9 12 1008.3 - - - Partly cloudy 10 - - - -
16/02:50pm 29.1 S 11 12 1008.4 - - - Partly cloudy 10 - - - -
16/02:40pm 29.4 SSE 10 13 1008.4 - - - Cloudy 10 - - - -
16/02:30pm 29.7 SSE 8 11 1008.6 - - - Cloudy 10 - - - -
16/02:20pm 29.3 SSE 8 11 1008.8 - - - Cloudy 10 - - - -
16/02:10pm 29.3 SE 8 12 1009.1 - - - Cloudy 10 - - - -
16/02:00pm 28.9 SE 9 11 1009.3 - - - Partly cloudy 10 - - - -
16/01:50pm 28.7 SE 10 12 1009.5 - - - Cloudy 10 - - - -
16/01:40pm 28.3 SE 11 16 1009.7 - - - Cloudy 10 - - - -
16/01:30pm 28.4 SE 13 15 1009.8 - - - Cloudy 10 - - - -
16/01:20pm 28.2 SE 15 15 1009.9 - - - Partly cloudy 10 - - - -
16/01:10pm 28.1 SE 16 16 1010.0 - - - Partly cloudy 10 - - - -
16/01:00pm 28.0 ESE 20 19 1010.2 - - - Partly cloudy 10 - - - -
16/12:50pm 28.6 E 13 22 1010.5 - - - Partly cloudy 10 - - - -
16/12:40pm 29.2 ENE 10 11 1010.6 - - - Partly cloudy 10 - - - -
16/12:30pm 28.9 E 10 12 1010.9 - - - Partly cloudy 10 - - - -
16/12:20pm 28.0 ENE 10 12 1011.0 - - - Partly cloudy 10 - - - -
16/12:10pm 27.8 ENE 7 11 1011.2 - - - Partly cloudy 10 - - - -
16/12:00pm 27.5 ENE 6 8 1011.2 - - - Partly cloudy 10 - - - -
16/11:50am 27.6 ENE 7 8 1011.2 - - - Partly cloudy 10 - - - -
16/11:40am 27.2 ENE 6 9 1011.4 - - - Cloudy 10 - - - -
16/11:30am 26.5 ENE 7 8 1011.6 - - - Partly cloudy 10 - - - -
16/11:20am 26.4 NE 6 7 1011.8 - - - Partly cloudy 10 - - - -
16/11:10am 26.9 NE 7 8 1011.9 - - - Partly cloudy 10 - - - -
16/11:00am 26.8 ENE 7 9 1012.0 - - - Partly cloudy 10 - - - -
16/10:50am 26.8 ENE 7 9 1012.1 - - - Partly cloudy 10 - - - -
16/10:40am 26.6 ENE 6 7 1012.2 - - - Partly cloudy 10 - - - -
16/10:30am 26.5 ENE 7 9 1012.1 - - - Partly cloudy 10 - - - -
16/10:20am 26.5 NE 8 10 1012.0 - - - Partly cloudy 10 - - - -
16/10:10am 26.5 ENE 7 8 1011.9 - - - Partly cloudy 10 - - - -
16/10:00am 26.6 ENE 7 9 1011.7 - - - Partly cloudy 10 - - - -
16/09:50am 26.3 E 8 9 1011.5 - - - Partly cloudy 10 - - - -
16/09:40am 26.0 NE 6 9 1011.5 - - - Partly cloudy 10 - - - -
16/09:30am 26.0 NE 6 6 1011.5 - - - Partly cloudy 10 - - - -
16/09:20am 26.0 ENE 6 8 1011.5 - - - Partly cloudy 10 - - - -
16/09:10am 26.0 ENE 8 11 1011.5 - - - Partly cloudy 10 - - - -
16/09:00am 26.1 E 7 10 1011.5 - - - Partly cloudy 10 - - - -
16/08:50am 26.0 E 8 7 1011.5 - - - Partly cloudy 10 - - - -
16/08:40am 26.0 E 7 9 1011.5 - - - Partly cloudy 10 - - - -
16/08:30am 26.1 E 7 9 1011.4 - - - Partly cloudy 10 - - - -
16/08:20am 26.2 ENE 6 7 1011.1 - - - Partly cloudy 10 - - - -
16/08:10am 25.7 E 7 8 1010.8 - - - Partly cloudy 10 - - - -
16/08:00am 25.6 E 9 10 1010.7 - - - Partly cloudy 10 - - - -
16/07:50am 25.6 E 10 12 1010.7 - - - Partly cloudy 8 - - - -
16/07:40am 25.5 E 10 10 1010.4 - - - Partly cloudy 10 - - - -
16/07:30am 25.6 ESE 13 15 1010.4 - - - Partly cloudy 10 - - - -
16/07:20am 25.5 E 11 15 1010.4 - - - Partly cloudy 7 - - - -
16/07:00am 25.1 E 11 15 1010.2 - - - Partly cloudy 7 - - - -
16/06:50am 25.1 E 12 13 1010.4 - - - Partly cloudy 5 - - - -
16/06:40am 24.6 E 13 17 1010.4 - - - Partly cloudy 9 - - - -
16/06:30am 24.8 E 15 19 1010.3 - - - Partly cloudy 3 - - - -
16/06:20am 25.2 E 16 20 1010.2 - - - Partly cloudy 6 - - - -
16/06:10am 25.5 E 18 21 1010.2 - - - Partly cloudy 10 - - - -
16/06:00am 26.0 E 17 20 1010.1 - - - Partly cloudy 7 - - - -
16/05:50am 25.8 E 15 23 1010.0 - - - Partly cloudy 10 - - - -
16/05:40am 26.1 E 13 16 1009.8 - - - Partly cloudy 10 - - - -
16/05:30am 25.9 E 11 14 1009.5 - - - Partly cloudy 10 - - - -
16/05:20am 25.6 E 14 16 1009.5 - - - Partly cloudy 10 - - - -
16/05:10am 25.5 E 16 18 1009.5 - - - Partly cloudy 10 - - - -
16/05:00am 25.3 E 13 17 1009.5 - - - Partly cloudy 9 - - - -
16/04:50am 25.3 E 14 16 1009.3 - - - Partly cloudy 6 - - - -
16/04:40am 25.4 E 15 16 1009.3 - - - Partly cloudy 10 - - - -
16/04:30am 25.5 E 13 16 1009.4 - - - Partly cloudy 7 - - - -
16/04:20am 25.7 E 11 13 1009.5 - - - Partly cloudy 8 - - - -
16/04:10am 25.8 E 13 14 1009.5 - - - Partly cloudy 8 - - - -
16/04:00am 25.7 E 13 14 1009.6 - - - Partly cloudy 6 - - - -
16/03:50am 25.6 ESE 12 15 1009.5 - - - Partly cloudy 10 - - - -
16/03:40am 25.2 ESE 16 17 1009.0 - - - Partly cloudy 10 - - - -
16/03:30am 25.4 SE 18 23 1009.6 - - - Partly cloudy 10 - - - -
16/03:20am 25.4 SE 19 25 1009.2 - - - Partly cloudy 2 - - - -
16/03:10am 26.7 SSE 20 24 1009.3 - - - Partly cloudy 10 - - - -
16/03:00am 26.7 SSE 21 23 1009.6 - - - Partly cloudy 10 - - - -
16/02:50am 27.8 SSE 12 23 1009.5 - - - Partly cloudy 10 - - - -
16/02:40am 28.4 SE 7 8 1009.5 - - - Partly cloudy 10 - - - -
16/02:30am 28.2 ESE 5 7 1009.7 - - - Partly cloudy 10 - - - -
16/02:20am 28.2 E 6 8 1009.7 - - - Partly cloudy 10 - - - -
16/02:10am 28.2 E 7 8 1009.8 - - - Partly cloudy 10 - - - -
16/02:00am 28.3 E 7 9 1009.8 - - - Partly cloudy 10 - - - -
16/01:50am 28.3 ENE 8 9 1009.8 - - - Partly cloudy 10 - - - -
16/01:40am 28.3 ENE 8 9 1010.0 - - - Partly cloudy 10 - - - -
16/01:30am 28.5 ENE 8 10 1010.2 - - - - 10 - - - -
16/01:20am 28.2 ENE 9 9 1010.3 - - - - 10 - - - -
16/01:10am 28.3 ENE 8 10 1010.4 - - - - 10 - - - -
16/01:00am 28.2 ENE 9 10 1010.5 - - - Partly cloudy 10 - - - -
16/12:40am 28.1 ENE 10 12 1010.8 - - - Partly cloudy 10 - - - -
16/12:30am 28.1 ENE 10 12 1011.0 - - - Partly cloudy 10 - - - -
16/12:20am 28.0 ENE 11 12 1011.0 - - - Partly cloudy 10 - - - -
16/12:10am 28.0 E 8 11 1011.1 - - - Partly cloudy 10 - - - -
16/12:00am 27.6 ENE 8 10 1011.3 - - - Partly cloudy 10 - - - -
 
Date/Time
CST
Temp

°C
Wind Pressure Rain
since 9am
mm
Weather Cloud Vis
km
Sea
Height
m
Swell
Dir
 
Speed
knots
Gust
knots
hPa Trend Height
m
Period
s
Dir
15/11:50pm 27.5 NE 9 12 1011.3 - - - Partly cloudy 10 - - - -
15/11:40pm 27.3 NE 11 12 1011.1 - - - Partly cloudy 10 - - - -
15/11:30pm 27.2 ENE 13 14 1010.9 - - - Partly cloudy 10 - - - -
15/11:20pm 27.2 ENE 13 16 1010.9 - - - Partly cloudy 10 - - - -
15/11:10pm 26.9 ENE 14 15 1011.1 - - - Partly cloudy 10 - - - -
15/11:00pm 26.7 ENE 13 15 1011.1 - - - Partly cloudy 10 - - - -
15/10:50pm 26.5 ENE 16 19 1011.0 - - - Partly cloudy 10 - - - -
15/10:40pm 26.7 ENE 13 16 1011.1 - - - Partly cloudy 10 - - - -
15/10:30pm 26.5 ENE 15 21 1011.0 - - - Partly cloudy 10 - - - -
15/10:20pm 26.5 ENE 19 22 1011.0 - - - Partly cloudy 10 - - - -
15/10:10pm 26.7 ENE 16 21 1011.0 - - - Partly cloudy 10 - - - -
15/10:00pm 26.8 ENE 14 20 1010.8 - - - Partly cloudy 10 - - - -
15/09:50pm 26.5 ENE 14 17 1010.9 - - - Partly cloudy 10 - - - -
15/09:40pm 26.6 E 12 19 1011.1 - - - Partly cloudy 10 - - - -
15/09:30pm 26.5 E 11 17 1011.1 - - - Partly cloudy 10 - - - -
15/09:20pm 26.2 E 13 15 1011.0 - - - Partly cloudy 10 - - - -
15/09:10pm 25.4 E 12 18 1010.9 - - - Partly cloudy 8 - - - -
15/09:00pm 25.2 E 16 15 1010.8 - - - Partly cloudy 1 - - - -
15/08:52pm 24.5 E 27 26 1010.7 - - - Partly cloudy 0.8 - - - -
15/08:51pm 24.8 E 27 38 1010.7 - - - Partly cloudy 0.6 - - - -
15/08:50pm 25.0 E 25 33 1010.7 - - - Partly cloudy 0.9 - - - -
15/08:42pm 26.7 ESE 17 33 1010.6 - - - Partly cloudy 1 - - - -
15/08:40pm 27.7 ESE 14 19 1010.5 - - - Partly cloudy 2 - - - -
15/08:30pm 28.9 NE 6 8 1010.2 - - - Partly cloudy 10 - - - -
15/08:20pm 28.9 ENE 7 8 1010.1 - - - Partly cloudy 10 - - - -
15/08:10pm 29.0 ENE 9 10 1009.7 - - - Partly cloudy 10 - - - -
15/08:00pm 29.2 ENE 11 10 1009.7 - - - Partly cloudy 10 - - - -
15/07:50pm 29.2 E 12 15 1009.6 - - - Partly cloudy 10 - - - -
15/07:40pm 29.3 E 13 15 1009.4 - - - Partly cloudy 10 - - - -
15/07:30pm 28.7 E 6 11 1009.3 - - - Partly cloudy 10 - - - -
15/07:20pm 28.8 E 12 14 1009.1 - - - Partly cloudy 10 - - - -
15/07:10pm 28.8 ENE 10 13 1009.1 - - - Partly cloudy 7 - - - -
15/07:00pm 28.8 ENE 10 12 1008.9 - - - Partly cloudy 10 - - - -
15/06:50pm 28.8 E 12 14 1008.8 - - - Partly cloudy 10 - - - -
15/06:40pm 29.3 E 11 12 1008.6 - - - Partly cloudy 10 - - - -
15/06:30pm 29.5 ESE 13 18 1008.3 - - - Partly cloudy 10 - - - -
15/06:20pm 29.2 E 11 17 1008.3 - - - Partly cloudy 10 - - - -
15/06:10pm 29.7 SE 10 10 1008.3 - - - Partly cloudy 10 - - - -
15/06:00pm 29.7 SE 10 11 1008.2 - - - - 10 - - - -
15/05:50pm 29.8 SE 10 13 1008.1 - - - - 10 - - - -
15/05:40pm 29.8 SE 10 11 1008.0 - - - - 10 - - - -
15/05:30pm 29.8 SE 9 13 1007.8 - - - Partly cloudy 10 - - - -
15/05:20pm 29.8 SE 10 11 1007.8 - - - Partly cloudy 10 - - - -
15/05:10pm 29.8 SE 10 12 1007.7 - - - Partly cloudy 10 - - - -
15/05:00pm 29.8 SE 10 12 1007.6 - - - - 10 - - - -
15/04:50pm 29.9 SE 10 12 1007.7 - - - - 10 - - - -
15/04:40pm 30.1 SE 12 15 1007.7 - - - - 10 - - - -
15/04:30pm 30.0 SE 10 12 1007.7 - - - Partly cloudy 10 - - - -
15/04:20pm 30.1 SE 10 14 1007.7 - - - Partly cloudy 10 - - - -
15/04:10pm 30.0 SE 10 10 1007.7 - - - Partly cloudy 10 - - - -
15/04:00pm 30.0 ESE 11 14 1007.7 - - - Partly cloudy 10 - - - -
15/03:50pm 29.9 ESE 13 15 1007.8 - - - Partly cloudy 10 - - - -
15/03:40pm 30.0 ESE 10 13 1007.8 - - - Partly cloudy 10 - - - -
15/03:30pm 30.1 ESE 9 11 1007.9 - - - Cloudy 10 - - - -
15/03:20pm 30.0 ESE 11 10 1007.9 - - - Cloudy 10 - - - -
15/03:10pm 29.4 ESE 8 10 1008.0 - - - Cloudy 10 - - - -
15/03:00pm 29.1 ESE 10 11 1008.0 - - - Cloudy 10 - - - -
15/02:50pm 28.9 E 11 13 1008.0 - - - Partly cloudy 10 - - - -
15/02:40pm 28.8 E 9 12 1008.3 - - - Cloudy 10 - - - -
15/02:30pm 28.9 ESE 9 12 1008.5 - - - Cloudy 10 - - - -
15/02:20pm 28.9 ESE 8 9 1008.8 - - - Partly cloudy 10 - - - -
15/02:10pm 29.2 E 10 12 1008.8 - - - Partly cloudy 10 - - - -
15/02:00pm 28.9 E 10 11 1008.9 - - - Partly cloudy 10 - - - -
15/01:50pm 28.7 E 10 15 1008.9 - - - Partly cloudy 10 - - - -
15/01:40pm 28.5 SE 15 18 1009.1 - - - Partly cloudy 10 - - - -
15/01:30pm 29.3 SSE 16 17 1009.1 - - - Partly cloudy 10 - - - -
15/01:20pm 29.9 SE 15 18 1009.2 - - - Partly cloudy 10 - - - -
15/01:10pm 30.1 ESE 16 20 1009.3 - - - Partly cloudy 10 - - - -
15/01:00pm 30.0 ESE 14 16 1009.4 - - - Partly cloudy 10 - - - -
15/12:50pm 29.7 ESE 12 15 1009.6 - - - Partly cloudy 10 - - - -
15/12:40pm 29.6 ESE 14 14 1009.8 - - - Partly cloudy 10 - - - -
15/12:30pm 29.9 ESE 13 16 1009.9 - - - Partly cloudy 10 - - - -
15/12:20pm 30.0 ESE 11 16 1010.2 - - - Partly cloudy 10 - - - -
15/12:10pm 29.8 ESE 11 13 1010.6 - - - Partly cloudy 10 - - - -
15/12:00pm 29.6 ESE 12 16 1010.6 - - - Partly cloudy 10 - - - -
15/11:50am 29.4 ESE 11 13 1010.5 - - - Partly cloudy 10 - - - -
15/11:40am 29.1 ESE 12 14 1010.5 - - - Partly cloudy 10 - - - -
15/11:30am 29.0 ESE 12 16 1010.7 - - - Partly cloudy 10 - - - -
15/11:20am 28.7 ESE 18 17 1010.9 - - - Partly cloudy 10 - - - -
15/11:10am 28.9 ESE 20 22 1011.0 - - - Partly cloudy 10 - - - -
15/11:00am 29.8 ESE 19 24 1011.1 - - - Partly cloudy 10 - - - -
15/10:50am 31.0 SE 10 12 1011.2 - - - Partly cloudy 10 - - - -
15/10:40am 31.1 ESE 11 12 1011.3 - - - Partly cloudy 10 - - - -
15/10:30am 30.2 ESE 7 12 1011.2 - - - Partly cloudy 10 - - - -
15/10:20am 29.8 ESE 6 12 1011.2 - - - Partly cloudy 10 - - - -
15/10:10am 29.9 E 6 8 1011.2 - - - Partly cloudy 10 - - - -
15/10:00am 29.5 E 8 10 1011.2 - - - Partly cloudy 10 - - - -
15/09:50am 29.8 ESE 7 10 1011.2 - - - Partly cloudy 10 - - - -
15/09:40am 28.7 E 7 11 1011.1 - - - Partly cloudy 10 - - - -
15/09:30am 29.1 ESE 8 10 1011.0 - - - Cloudy 10 - - - -
15/09:20am 30.0 SE 7 8 1010.9 - - - Partly cloudy 10 - - - -
15/09:10am 30.2 SE 11 9 1010.9 - - - Partly cloudy 10 - - - -
15/09:00am 30.1 SE 14 15 1010.7 - - - Partly cloudy 10 - - - -
15/08:50am 30.3 SE 10 12 1010.6 - - - Partly cloudy 10 - - - -
15/08:40am 30.4 SE 10 12 1010.5 - - - Partly cloudy 10 - - - -
15/08:30am 30.9 SE 11 12 1010.4 - - - Partly cloudy 10 - - - -
15/08:20am 30.9 SE 10 13 1010.2 - - - Partly cloudy 10 - - - -
15/08:10am 30.6 SE 11 14 1010.3 - - - Partly cloudy 10 - - - -
15/08:00am 30.4 SE 11 12 1010.2 - - - - 10 - - - -
15/07:50am 30.2 SSE 10 13 1010.1 - - - - 10 - - - -
15/07:40am 29.8 SE 9 12 1010.0 - - - - 10 - - - -
15/07:30am 29.7 SE 10 12 1009.9 - - - - 10 - - - -
15/07:20am 29.3 SE 9 11 1009.9 - - - - 10 - - - -
15/07:10am 29.3 SSE 9 10 1009.9 - - - Partly cloudy 10 - - - -
15/07:00am 29.3 SSE 10 11 1009.8 - - - Partly cloudy 10 - - - -
15/06:50am 29.4 SSE 11 12 1009.6 - - - Cloudy 10 - - - -
15/06:40am 29.3 SE 11 12 1009.6 - - - Cloudy 10 - - - -
15/06:30am 29.3 SE 10 12 1009.5 - - - Cloudy 10 - - - -
15/06:20am 29.2 SE 8 10 1009.5 - - - Partly cloudy 10 - - - -
15/06:10am 29.1 SE 7 8 1009.4 - - - Partly cloudy 10 - - - -
15/06:00am 29.2 SE 8 9 1009.5 - - - - 10 - - - -
15/05:50am 29.2 SSE 9 10 1009.4 - - - Partly cloudy 10 - - - -
15/05:40am 29.2 SSE 10 11 1009.4 - - - Partly cloudy 10 - - - -
15/05:30am 29.1 SSE 9 11 1009.3 - - - Partly cloudy 10 - - - -
15/05:20am 29.1 SSE 9 11 1009.3 - - - Partly cloudy 10 - - - -
15/05:10am 29.1 SSE 7 11 1009.3 - - - - 10 - - - -
15/05:00am 29.1 SSE 8 8 1009.3 - - - - 10 - - - -
15/04:50am 29.1 SSE 8 10 1009.3 - - - - 10 - - - -
15/04:40am 29.1 SSE 8 10 1009.2 - - - - 10 - - - -
15/04:30am 29.1 SSE 7 10 1009.2 - - - - 10 - - - -
15/04:20am 29.0 SSE 6 7 1009.2 - - - - 10 - - - -
15/04:10am 29.0 SSE 6 7 1009.1 - - - - 10 - - - -
15/04:00am 28.9 SSE 6 7 1009.2 - - - - 10 - - - -
15/03:50am 28.9 SSE 7 7 1009.2 - - - - 10 - - - -
15/03:40am 28.8 S 7 8 1009.2 - - - - 10 - - - -
15/03:30am 28.8 S 8 9 1009.1 - - - - 10 - - - -
15/03:20am 28.8 S 8 11 1009.1 - - - - 10 - - - -
15/03:10am 28.7 S 6 8 1009.1 - - - - 10 - - - -
15/03:00am 28.7 SSE 5 7 1009.1 - - - - 10 - - - -
15/02:50am 28.7 SSE 5 6 1009.2 - - - - 10 - - - -
15/02:40am 28.7 SSE 5 6 1009.3 - - - - 10 - - - -
15/02:30am 28.7 SSE 6 6 1009.2 - - - - 10 - - - -
15/02:20am 28.7 SSE 6 8 1009.4 - - - - 10 - - - -
15/02:10am 28.7 SSE 6 6 1009.6 - - - - 10 - - - -
15/02:00am 28.7 S 5 6 1009.7 - - - - 10 - - - -
15/01:50am 28.7 S 6 7 1009.7 - - - - 10 - - - -
15/01:40am 28.7 S 5 7 1009.8 - - - - 10 - - - -
15/01:30am 28.7 S 5 7 1009.9 - - - - 10 - - - -
15/01:20am 28.7 SSE 5 7 1010.1 - - - - 10 - - - -
15/01:10am 28.7 SSE 5 7 1010.3 - - - - 10 - - - -
15/01:00am 28.7 SE 4 5 1010.5 - - - - 10 - - - -
15/12:50am 28.7 SE 4 5 1010.5 - - - - 10 - - - -
15/12:40am 28.6 SE 4 5 1010.6 - - - - 10 - - - -
15/12:30am 28.6 SE 5 6 1010.7 - - - Partly cloudy 10 - - - -
15/12:20am 28.7 SSE 5 7 1010.8 - - - Partly cloudy 10 - - - -
15/12:10am 28.6 S 6 7 1010.8 - - - Partly cloudy 10 - - - -
15/12:00am 28.6 S 6 7 1010.8 - - - Partly cloudy 10 - - - -
 
Date/Time
CST
Temp

°C
Wind Pressure Rain
since 9am
mm
Weather Cloud Vis
km
Sea
Height
m
Swell
Dir
 
Speed
knots
Gust
knots
hPa Trend Height
m
Period
s
Dir
14/11:50pm 28.6 S 8 9 1010.8 - - - Cloudy 10 - - - -
14/11:40pm 28.4 S 7 6 1010.9 - - - Partly cloudy 10 - - - -
14/11:30pm 28.5 S 7 10 1010.8 - - - Partly cloudy 10 - - - -
14/11:20pm 28.2 SSE 7 9 1010.8 - - - Partly cloudy 10 - - - -
14/11:10pm 28.2 SSE 10 11 1010.8 - - - - 10 - - - -
14/11:00pm 28.1 SSE 10 11 1010.9 - - - - 10 - - - -
14/10:50pm 28.1 S 10 10 1010.9 - - - - 10 - - - -
14/10:40pm 27.9 S 10 11 1010.8 - - - - 10 - - - -
14/10:30pm 27.7 S 10 11 1010.9 - - - Partly cloudy 10 - - - -
14/10:20pm 27.7 S 12 12 1010.9 - - - Partly cloudy 10 - - - -
14/10:10pm 27.7 S 10 12 1010.9 - - - Partly cloudy 10 - - - -
14/10:00pm 27.8 S 12 13 1011.0 - - - Partly cloudy 10 - - - -
14/09:50pm 27.9 S 9 13 1010.9 - - - Partly cloudy 10 - - - -
14/09:40pm 28.0 S 12 11 1010.8 - - - Partly cloudy 10 - - - -
14/09:30pm 28.5 S 15 16 1010.9 - - - Partly cloudy 10 - - - -
14/09:20pm 29.2 SSE 16 15 1010.7 - - - Partly cloudy 10 - - - -
14/09:10pm 29.5 SSE 11 13 1010.3 - - - Partly cloudy 10 - - - -
14/09:00pm 29.4 SSE 10 13 1010.2 - - - - 10 - - - -
14/08:50pm 29.4 SSE 8 11 1010.1 - - - - 10 - - - -
14/08:40pm 29.4 SSE 9 9 1010.1 - - - - 10 - - - -
14/08:30pm 29.4 SSE 9 14 1009.8 - - - - 10 - - - -
14/08:20pm 29.4 SSE 8 10 1009.8 - - - - 10 - - - -
14/08:10pm 29.1 S 8 11 1009.5 - - - - 10 - - - -
14/08:00pm 29.1 S 10 12 1009.3 - - - - 10 - - - -
14/07:50pm 29.1 S 10 14 1009.2 - - - - 10 - - - -
14/07:40pm 29.0 S 10 13 1009.1 - - - - 10 - - - -
14/07:30pm 28.9 S 11 12 1009.1 - - - Partly cloudy 10 - - - -
14/07:20pm 28.9 S 13 12 1009.0 - - - Partly cloudy 10 - - - -
14/07:10pm 28.9 S 13 16 1008.7 - - - Partly cloudy 10 - - - -
14/07:00pm 29.5 SSE 8 10 1008.8 - - - - 10 - - - -
14/06:50pm 29.7 S 5 6 1008.8 - - - - 10 - - - -
14/06:40pm 29.7 S 5 7 1008.7 - - - - 10 - - - -
14/06:30pm 30.1 S 5 5 1008.7 - - - - 10 - - - -
14/06:20pm 30.3 S 6 7 1008.6 - - - - 10 - - - -
14/06:10pm 31.3 S 6 7 1008.5 - - - - 10 - - - -
14/06:00pm 31.0 S 8 8 1008.4 - - - - 10 - - - -
14/05:50pm 30.6 S 9 9 1008.3 - - - - 10 - - - -
14/05:40pm 30.1 SSW 10 10 1008.1 - - - - 10 - - - -
14/05:30pm 30.5 SSW 8 9 1008.0 - - - Partly cloudy 10 - - - -
14/05:20pm 30.0 S 11 10 1008.0 - - - Partly cloudy 10 - - - -
14/05:10pm 30.4 S 9 10 1007.9 - - - Partly cloudy 10 - - - -
14/05:00pm 29.3 S 11 11 1007.7 - - - Partly cloudy 10 - - - -
14/04:50pm 30.0 SSE 5 9 1007.6 - - - Partly cloudy 10 - - - -
14/04:40pm 30.4 S 2 1 1007.6 - - - Partly cloudy 10 - - - -
14/04:30pm 32.0 ENE 2 4 1007.5 - - - Partly cloudy 10 - - - -
14/04:20pm 30.3 N 2 4 1007.4 - - - - 10 - - - -
14/04:10pm 30.2 N 3 3 1007.5 - - - - 10 - - - -
14/04:00pm 30.1 NNE 3 4 1007.5 - - - - 10 - - - -
14/03:50pm 29.6 N 3 4 1007.4 - - - - 10 - - - -
14/03:40pm 30.2 NNE 4 5 1007.4 - - - - 10 - - - -
14/03:30pm 29.5 N 4 6 1007.4 - - - Partly cloudy 10 - - - -
14/03:20pm 30.3 N 4 6 1007.6 - - - Partly cloudy 10 - - - -
14/03:10pm 31.0 NNE 5 6 1007.7 - - - Partly cloudy 10 - - - -
14/03:00pm 32.0 N 6 7 1007.8 - - - Partly cloudy 10 - - - -
14/02:50pm 32.0 N 5 6 1007.9 - - - Partly cloudy 10 - - - -
14/02:40pm 32.0 N 6 7 1008.1 - - - Partly cloudy 10 - - - -
14/02:30pm 30.7 - 5 9 1008.2 - - - Partly cloudy 10 - - - -
14/02:20pm 31.6 - 5 7 1008.4 - - - - 10 - - - -
14/02:10pm 31.0 N 6 7 1008.5 - - - - 10 - - - -
14/02:00pm 31.5 - 6 7 1008.7 - - - Partly cloudy 10 - - - -
14/01:50pm 31.2 N 7 8 1008.8 - - - Partly cloudy 10 - - - -
14/01:40pm 29.7 N 6 8 1008.9 - - - Partly cloudy 10 - - - -
14/01:30pm 29.5 N 6 8 1009.0 - - - - 10 - - - -
14/01:20pm 29.9 N 6 8 1009.0 - - - - 10 - - - -
14/01:10pm 31.1 NNE 7 8 1008.9 - - - - 10 - - - -
14/01:00pm 30.3 N 6 9 1009.0 - - - Partly cloudy 10 - - - -
14/12:50pm 29.7 N 7 8 1009.3 - - - Partly cloudy 10 - - - -
14/12:40pm 29.5 N 6 9 1009.6 - - - Partly cloudy 10 - - - -
14/12:30pm 29.6 - 6 10 1009.7 - - - Partly cloudy 10 - - - -
14/12:20pm 29.5 NNW 7 8 1009.9 - - - Partly cloudy 10 - - - -
14/12:10pm 29.7 N 7 9 1010.1 - - - Partly cloudy 10 - - - -
14/12:00pm 30.4 N 7 8 1010.3 - - - Partly cloudy 10 - - - -
14/11:50am 30.8 NNE 8 9 1010.4 - - - Partly cloudy 10 - - - -
14/11:40am 30.2 NNE 7 10 1010.6 - - - Partly cloudy 10 - - - -
14/11:30am 30.0 NNE 7 10 1010.7 - - - Partly cloudy 10 - - - -
14/11:20am 29.7 NNE 7 7 1010.7 - - - - 10 - - - -
14/11:10am 29.2 NNE 6 9 1010.7 - - - - 10 - - - -
14/11:00am 29.1 N 7 8 1010.7 - - - - 10 - - - -
14/10:50am 28.8 - 7 9 1010.7 - - - Partly cloudy 10 - - - -
14/10:40am 28.8 N 7 7 1010.6 - - - - 10 - - - -
14/10:30am 28.5 N 6 9 1010.5 - - - - 10 - - - -
14/10:20am 28.5 N 6 9 1010.5 - - - - 10 - - - -
14/10:10am 28.6 NNE 8 9 1010.4 - - - - 10 - - - -
14/10:00am 28.3 NNE 7 9 1010.2 - - - - 10 - - - -
14/09:50am 28.4 NNE 6 8 1010.1 - - - - 10 - - - -
14/09:40am 28.3 NNE 6 7 1010.0 - - - - 10 - - - -
14/09:30am 28.2 NNE 7 9 1010.1 - - - Partly cloudy 10 - - - -
14/09:20am 28.4 NNE 7 8 1010.0 - - - Partly cloudy 10 - - - -
14/09:10am 28.3 NNE 9 9 1009.8 - - - Partly cloudy 10 - - - -
14/09:00am 28.4 NNE 9 12 1009.7 - - - Partly cloudy 10 - - - -
14/08:50am 29.3 ENE 7 9 1009.7 - - - Partly cloudy 10 - - - -
14/08:40am 29.3 ENE 7 11 1009.7 - - - Partly cloudy 10 - - - -
14/08:30am 29.3 ENE 7 9 1009.7 - - - - 10 - - - -
14/08:20am 29.3 ENE 7 7 1009.5 - - - - 10 - - - -
14/08:10am 29.3 ENE 7 8 1009.4 - - - - 10 - - - -
14/08:00am 29.2 ENE 6 7 1009.4 - - - - 10 - - - -
14/07:50am 29.1 NE 9 10 1009.5 - - - Partly cloudy 10 - - - -
14/07:40am 29.1 NNE 9 10 1009.4 - - - Partly cloudy 10 - - - -
14/07:30am 29.1 NNE 8 9 1009.3 - - - Partly cloudy 10 - - - -
14/07:20am 29.2 NNE 7 7 1009.2 - - - Cloudy 10 - - - -
14/07:10am 29.2 NE 7 8 1009.2 - - - Partly cloudy 10 - - - -
14/07:00am 29.2 ENE 7 8 1009.0 - - - Partly cloudy 10 - - - -
14/06:50am 29.2 ENE 7 9 1009.0 - - - Cloudy 10 - - - -
14/06:40am 29.2 ENE 8 10 1009.0 - - - Cloudy 10 - - - -
14/06:30am 29.2 ENE 7 9 1009.0 - - - Cloudy 10 - - - -
14/06:20am 29.2 ENE 6 9 1009.0 - - - Cloudy 10 - - - -
14/06:10am 29.2 E 6 7 1008.8 - - - Partly cloudy 10 - - - -
14/06:00am 29.2 E 8 9 1008.7 - - - Partly cloudy 10 - - - -
14/05:50am 29.1 ESE 6 8 1008.6 - - - Partly cloudy 10 - - - -
14/05:40am 29.1 SE 6 8 1008.6 - - - Partly cloudy 10 - - - -
14/05:30am 29.1 ESE 6 8 1008.3 - - - Partly cloudy 10 - - - -
14/05:20am 29.1 E 9 11 1008.3 - - - Partly cloudy 10 - - - -
14/05:10am 29.1 ESE 8 11 1008.3 - - - Partly cloudy 10 - - - -
14/05:00am 29.1 ESE 8 12 1008.2 - - - Partly cloudy 10 - - - -
14/04:50am 29.1 ESE 8 10 1008.2 - - - Partly cloudy 10 - - - -
14/04:40am 29.1 SE 8 12 1008.1 - - - Partly cloudy 10 - - - -
14/04:30am 29.2 SE 8 10 1008.2 - - - Partly cloudy 10 - - - -
14/04:20am 29.2 ESE 10 12 1008.3 - - - Partly cloudy 10 - - - -
14/04:10am 29.2 ESE 12 13 1008.3 - - - Partly cloudy 10 - - - -
14/04:00am 29.3 ESE 12 13 1008.3 - - - Partly cloudy 10 - - - -
14/03:50am 29.3 ESE 12 13 1008.2 - - - - 10 - - - -
14/03:40am 29.2 ESE 13 13 1008.1 - - - - 10 - - - -
14/03:30am 29.2 ESE 13 14 1008.1 - - - - 10 - - - -
14/03:20am 29.2 ESE 13 15 1008.1 - - - Partly cloudy 10 - - - -
14/03:10am 29.1 SE 11 14 1008.0 - - - Partly cloudy 10 - - - -
14/03:00am 29.1 SE 11 13 1008.2 - - - Partly cloudy 10 - - - -
14/02:50am 29.0 SE 11 15 1008.4 - - - - 10 - - - -
14/02:40am 29.0 SE 13 17 1008.6 - - - - 10 - - - -
14/02:30am 28.9 SE 14 16 1008.6 - - - - 10 - - - -
14/02:20am 28.9 SE 16 18 1008.8 - - - - 10 - - - -
14/02:10am 28.9 SE 14 18 1008.9 - - - - 10 - - - -
14/02:00am 28.8 SE 16 18 1009.0 - - - - 10 - - - -
14/01:50am 28.9 SE 16 18 1009.0 - - - - 10 - - - -
14/01:40am 29.0 SE 17 20 1009.1 - - - - 10 - - - -
14/01:30am 29.0 SE 19 20 1009.1 - - - - 10 - - - -
14/01:20am 29.1 SE 18 21 1009.3 - - - - 10 - - - -
14/01:10am 29.1 SE 15 19 1009.4 - - - - 10 - - - -
14/01:00am 28.8 SE 15 17 1009.5 - - - - 10 - - - -
14/12:50am 28.7 SE 16 16 1009.6 - - - - 10 - - - -
14/12:40am 28.6 SE 17 20 1009.6 - - - - 10 - - - -
14/12:30am 28.6 SE 18 19 1009.7 - - - - 10 - - - -

Other Formats:

Comma delimited format used in spreadsheet applications
http://www.bom.gov.au/fwo/IDD60701/IDD60701.95100.axf

JavaScript Object Notation format (JSON) in row-major order
http://www.bom.gov.au/fwo/IDD60701/IDD60701.95100.json